Wind_Speed
12 14 16 17 20 21 20 21 20 20 24 27 31 33 34 36 36 38 39 39 35 35 33 35 35 34 33 32 28 28 27 25 23 22 21 20 19 18 16 15 14 12 8 6 4 4 5 5 7
18 20 21 21 22 24 26 31 31 29 29 31 34 36 41 40 39 40 40 40 36 37 37 36 37 37 37 36 33 31 30 28 27 25 23 21 20 19 18 17 16 14 11 9 7 7 7 6 8
22 24 25 26 27 31 33 34 35 38 39 38 40 40 43 45 44 45 45 45 43 41 40 39 39 40 40 39 37 34 32 31 30 28 25 24 22 21 19 19 18 17 14 12 10 9 9 9 11
28 30 32 31 35 38 41 40 39 44 50 48 49 53 50 51 51 50 52 52 49 47 44 44 42 42 41 42 42 37 36 34 34 31 28 26 25 24 22 20 20 19 17 14 12 12 11 12 14
33 35 37 40 42 44 46 49 50 50 55 59 57 62 63 57 58 56 58 59 57 54 51 48 48 46 44 44 44 40 39 39 39 34 32 29 27 26 25 23 23 21 18 16 14 13 13 14 16
38 39 40 43 46 51 53 53 55 57 61 64 66 63 69 67 64 63 62 64 64 62 59 55 52 52 49 46 47 45 43 42 41 39 37 33 31 29 27 25 24 24 21 17 16 15 15 16 17
41 42 44 46 49 55 54 55 59 61 64 71 75 67 68 77 73 68 67 68 69 68 66 62 57 56 55 51 48 48 45 45 44 45 42 37 35 32 29 27 27 26 24 20 18 17 17 19 19
44 46 49 51 52 55 57 62 65 67 69 72 77 79 70 79 80 66 62 66 71 74 72 68 63 61 60 57 52 50 47 49 43 44 46 41 37 34 32 29 28 28 26 23 20 19 20 21 22
47 50 52 55 57 59 63 68 72 76 78 78 77 77 79 78 79 69 67 71 72 77 76 72 69 66 65 63 57 53 50 53 53 56 49 46 41 35 33 31 30 31 28 26 23 22 22 23 21
53 55 56 58 60 64 69 75 79 81 75 69 69 70 71 71 76 75 72 73 80 80 81 77 73 72 68 67 63 58 53 54 48 51 56 46 44 38 35 33 32 32 32 30 28 24 23 23 23
57 59 60 61 63 68 72 79 82 76 69 68 61 53 55 60 62 69 70 72 80 83 83 80 77 75 74 71 68 63 58 56 56 57 38 47 48 41 38 36 33 35 34 33 29 25 24 26 24
59 59 61 64 69 72 78 83 78 71 64 52 40 41 41 45 50 54 52 57 76 83 83 82 79 77 77 76 73 68 62 60 62 55 54 41 47 44 40 39 37 36 36 35 32 28 27 26 26
60 61 64 69 73 77 82 78 72 58 47 34 34 37 39 42 43 45 44 42 51 73 83 82 82 80 79 79 77 74 57 65 64 61 63 43 40 47 43 41 41 39 39 37 36 32 29 28 27
64 65 68 72 77 81 80 72 63 47 34 31 34 36 39 45 47 46 46 39 37 49 70 80 83 82 82 82 79 63 71 69 67 62 46 55 53 47 48 45 43 41 41 40 38 36 32 32 30
64 67 72 78 80 82 79 62 48 36 29 27 22 23 29 37 45 48 45 46 39 37 51 67 80 85 86 86 83 83 71 75 63 69 59 63 61 64 55 50 45 45 43 42 40 39 35 33 31
65 69 75 79 83 83 76 50 38 32 25 19 20 24 32 36 33 36 42 43 45 38 37 56 71 85 88 89 87 85 90 63 83 69 65 68 60 53 59 55 50 50 44 46 44 42 38 34 34
69 72 78 80 80 85 73 50 32 27 20 21 26 29 32 33 34 27 31 39 43 44 40 40 63 78 90 92 91 91 91 81 66 80 73 78 77 67 62 57 56 53 47 49 47 45 42 39 37
71 74 78 82 82 84 64 41 28 26 21 25 31 35 35 36 31 30 26 31 37 47 47 42 49 71 89 94 94 94 93 86 86 77 66 68 48 65 56 60 62 57 52 52 50 47 45 43 41
73 77 80 82 82 83 60 34 24 25 24 25 30 34 36 33 32 26 25 28 32 43 47 49 45 62 82 96 96 96 97 94 88 86 83 83 69 74 69 73 68 62 56 52 51 49 46 44 42
74 76 79 83 84 83 61 30 21 24 25 26 29 34 36 37 35 32 26 25 25 27 38 56 52 53 74 91 101 99 99 97 90 92 73 73 74 55 68 69 71 66 58 56 54 49 48 49 47
75 78 81 85 86 79 57 30 19 22 25 25 26 30 36 39 35 30 26 27 28 23 28 33 56 58 61 86 100 104 103 103 100 94 77 72 73 60 73 71 71 65 61 57 51 50 51 49 46
75 78 81 87 85 74 52 27 22 21 25 27 26 26 29 33 35 37 28 28 26 30 24 32 39 59 58 75 94 106 106 105 103 103 92 83 67 72 65 67 71 67 63 56 52 53 53 51 48
75 78 80 85 83 68 40 25 24 24 24 26 26 29 33 36 34 34 35 32 34 31 31 30 28 54 64 66 90 105 108 109 109 103 86 91 71 80 71 65 71 68 65 58 55 57 55 50 51
74 77 81 82 82 65 34 23 26 24 25 30 35 38 40 40 38 32 29 31 34 38 42 39 34 33 60 67 84 101 111 112 109 103 103 86 77 80 59 71 70 74 66 59 59 58 56 52 52
74 78 81 81 81 57 34 24 27 27 28 33 35 39 42 42 39 39 40 40 40 42 45 46 47 42 44 63 77 99 109 114 111 107 101 96 82 77 75 70 65 69 65 61 62 60 57 56 51
77 81 81 80 83 62 31 26 29 29 35 39 41 43 46 48 50 50 52 50 50 48 46 44 51 47 50 50 74 94 105 114 112 109 103 103 81 67 72 67 66 63 65 64 64 61 58 58 52
75 78 78 79 81 75 29 23 30 36 38 43 46 51 53 55 57 57 49 43 48 45 45 44 45 44 49 50 66 89 105 113 115 111 111 105 95 65 80 73 71 74 73 67 65 62 61 59 54
72 75 79 79 78 78 43 22 29 37 40 45 47 50 51 54 53 44 40 39 41 46 37 34 32 40 46 53 60 80 102 111 117 113 111 101 95 74 66 73 70 68 71 70 66 64 63 59 56
72 73 76 78 76 74 67 21 34 37 43 45 50 51 54 49 46 42 40 50 47 44 40 37 33 42 43 54 59 74 96 110 117 115 112 111 98 79 66 71 65 62 73 72 68 66 63 60 58
69 71 74 77 78 72 71 38 35 40 46 49 52 54 54 54 54 57 59 55 54 43 34 44 45 41 38 54 61 70 89 104 115 115 113 113 106 90 82 67 69 63 70 75 70 67 65 61 60
Wind_Direction
314 309 307 306 305 307 304 287 280 281 284 289 277 272 271 268 266 265 268 267 263 259 251 250 250 248 245 244 239 239 238 236 235 232 228 224 222 219 215 214 210 205 202 196 185 171 173 188 176
320 314 309 306 309 308 298 290 291 293 283 274 272 272 275 271 268 266 267 268 263 259 255 249 249 246 246 245 243 240 235 233 233 231 228 225 224 222 217 211 209 203 198 197 194 185 181 194 184
315 312 307 306 307 302 296 295 302 298 288 284 279 271 266 271 267 265 264 263 261 256 253 251 245 246 245 245 243 241 238 231 230 229 226 224 223 223 219 213 208 204 201 195 195 185 191 187 176
320 316 312 308 307 306 302 308 302 296 291 285 284 280 273 269 264 261 260 260 260 256 251 248 246 243 242 243 241 237 240 230 228 228 223 221 220 220 220 216 211 206 199 196 192 189 188 181 175
317 315 314 311 309 306 303 305 300 292 290 289 285 284 280 273 267 256 254 253 253 253 249 246 243 243 240 239 240 237 237 237 225 225 224 220 218 218 217 213 211 208 201 197 194 194 186 182 178
319 316 314 311 310 304 304 303 298 296 293 290 286 283 280 275 269 263 255 250 250 249 248 243 242 240 239 236 237 236 235 241 235 223 224 220 218 215 214 213 210 209 201 198 195 195 187 185 179
320 318 315 312 308 305 303 299 297 295 293 292 292 290 285 279 274 270 263 253 247 246 245 243 238 237 236 235 234 235 232 238 243 224 219 217 217 214 211 212 209 208 205 196 194 199 191 187 181
323 321 318 315 311 308 307 308 304 298 298 295 291 291 281 282 278 270 257 252 246 243 242 241 237 233 234 232 230 232 231 235 244 220 213 213 214 212 209 209 208 207 206 199 195 197 192 191 187
326 324 322 318 316 314 313 311 309 307 303 299 293 287 281 279 275 259 245 241 237 238 240 238 236 232 229 232 227 228 228 233 222 237 208 206 209 209 209 208 207 206 204 204 199 197 196 194 192
330 328 325 322 318 318 318 314 311 311 307 295 286 280 275 270 263 257 248 236 234 232 233 234 234 232 227 227 226 225 224 229 224 243 227 208 206 205 208 207 208 204 203 204 203 198 199 194 192
332 330 327 324 322 320 319 318 317 313 300 290 287 278 273 268 262 257 253 241 235 232 230 229 228 229 226 223 224 222 222 224 228 223 199 223 202 205 206 207 207 204 202 204 203 200 199 196 193
332 330 327 325 324 324 323 320 319 308 297 295 285 278 275 273 272 265 262 254 238 232 229 226 224 224 226 222 220 220 219 219 225 225 216 225 206 205 206 208 207 207 204 204 199 200 199 194 193
331 330 329 327 327 325 325 324 316 304 300 292 286 283 281 279 278 276 269 260 248 238 230 225 222 219 220 222 218 216 216 215 219 225 222 237 237 204 207 209 208 208 205 203 199 199 198 192 192
334 332 328 328 329 330 332 323 315 305 299 295 297 298 294 286 278 272 265 257 246 240 236 229 220 217 215 219 217 210 212 216 214 209 224 228 233 228 211 208 210 209 205 203 200 199 197 190 192
333 329 330 331 333 337 336 320 308 302 296 297 293 308 314 311 277 268 263 253 251 243 234 232 224 216 213 214 215 212 209 212 218 216 226 227 234 224 206 210 208 209 206 203 203 200 196 193 191
333 332 337 340 341 342 334 322 301 299 300 286 295 311 323 306 317 271 263 256 248 249 241 227 225 218 212 210 211 212 208 204 206 211 209 225 199 214 209 208 207 211 203 204 202 201 195 192 192
336 338 340 340 343 343 335 325 302 295 294 279 283 296 312 318 316 310 271 261 254 245 245 236 223 220 214 211 210 209 211 214 210 209 214 210 226 209 208 206 209 210 203 204 203 201 196 193 195
338 340 341 345 348 345 334 323 303 301 301 281 284 295 306 315 317 310 302 269 259 251 243 237 232 219 214 211 209 208 209 205 212 203 211 201 195 204 205 207 211 208 204 205 202 201 198 197 196
339 343 346 350 350 348 332 324 306 306 308 303 286 291 302 311 313 303 300 293 271 253 249 241 236 226 216 211 209 207 207 209 209 209 211 214 218 223 200 210 210 208 205 205 204 202 201 201 201
344 346 350 352 352 349 337 328 314 313 315 310 297 298 301 306 309 307 295 287 285 266 254 242 238 232 221 214 209 208 207 210 206 208 209 209 207 188 201 203 206 208 204 203 204 200 203 204 202
344 347 354 353 356 350 340 334 309 320 325 319 311 304 301 296 294 297 291 284 283 271 256 246 236 234 227 217 211 208 207 208 209 210 205 213 217 206 197 204 208 207 205 204 203 203 204 205 205
346 348 355 355 357 352 344 343 328 327 324 321 311 302 301 305 302 301 296 280 279 274 261 247 237 234 229 222 214 208 209 208 207 201 202 209 206 198 198 197 205 206 207 203 200 204 206 206 207
346 347 355 357 359 353 342 341 329 333 329 329 321 315 318 315 310 303 298 287 282 276 268 260 254 235 230 225 216 210 209 209 209 209 205 199 213 208 208 205 203 206 206 202 201 205 206 204 207
345 350 353 359 1 356 353 342 344 339 333 325 324 320 315 313 306 298 289 285 280 277 272 261 254 250 236 226 218 213 208 210 209 207 206 205 205 209 200 207 205 206 204 200 202 206 205 205 206
347 348 353 1 4 359 352 345 333 332 330 322 317 312 309 313 312 307 300 293 283 278 269 262 254 254 241 230 223 213 210 209 208 206 204 204 206 207 205 207 205 205 206 201 205 205 205 207 204
350 354 0 3 2 4 340 336 330 325 326 326 323 319 321 321 315 311 306 298 289 277 272 268 251 250 238 231 222 216 211 209 208 206 204 201 197 207 204 202 201 209 207 204 206 205 205 207 203
351 355 359 1 2 2 352 329 336 331 329 325 324 323 322 319 316 314 313 307 304 291 269 269 250 234 236 225 220 218 212 209 207 207 206 206 206 205 214 216 214 209 201 205 207 207 207 208 205
351 355 358 3 2 359 4 330 331 331 326 325 322 322 323 326 323 315 311 309 312 293 266 254 241 230 233 225 217 216 213 208 206 206 207 204 204 197 200 208 205 199 206 203 207 208 209 207 208
353 357 358 3 3 357 360 339 332 333 329 326 327 329 329 331 326 309 304 304 316 319 270 245 234 230 236 225 218 212 214 208 206 206 204 204 199 194 198 202 208 201 202 199 206 209 209 208 209
353 357 357 1 2 358 354 351 333 335 333 330 332 334 333 334 336 332 324 312 306 306 294 253 236 233 231 227 218 210 212 209 204 205 204 205 205 198 203 200 202 206 203 199 204 209 211 209 209
Height
5833 5832 5831 5830 5832 5828 5827 5826 5825 5825 5825 5824 5821 5819 5820 5820 5820 5822 5821 5821 5825 5826 5829 5830 5831 5832 5832 5834 5837 5838 5840 5842 5843 5844 5845 5847 5848 5850 5850 5852 5854 5855 5857 5857 5857 5858 5858 5858 5858
5830 5829 5827 5826 5825 5822 5822 5819 5820 5821 5819 5817 5815 5814 5810 5813 5813 5812 5813 5814 5819 5819 5821 5824 5825 5826 5827 5829 5832 5833 5835 5837 5839 5840 5842 5844 5846 5848 5849 5849 5852 5854 5855 5856 5857 5857 5857 5857 5858
5826 5824 5823 5821 5820 5817 5814 5814 5813 5809 5808 5809 5807 5807 5805 5802 5804 5804 5805 5806 5810 5811 5813 5815 5817 5819 5821 5822 5826 5829 5831 5832 5834 5836 5838 5841 5843 5845 5846 5848 5849 5851 5854 5855 5856 5856 5857 5857 5858
5822 5820 5818 5816 5812 5809 5805 5806 5805 5799 5795 5797 5796 5791 5795 5791 5795 5796 5795 5796 5799 5803 5805 5807 5809 5811 5814 5816 5817 5822 5825 5826 5829 5832 5834 5836 5839 5841 5844 5846 5848 5850 5851 5853 5854 5855 5855 5857 5857
5818 5815 5813 5809 5805 5799 5798 5797 5792 5788 5782 5777 5781 5776 5775 5780 5779 5783 5783 5783 5785 5790 5794 5798 5800 5802 5806 5809 5810 5816 5818 5820 5821 5825 5829 5831 5834 5837 5840 5842 5845 5848 5850 5852 5853 5854 5854 5857 5857
5814 5811 5807 5802 5798 5789 5788 5783 5777 5771 5767 5760 5758 5762 5753 5759 5763 5763 5768 5771 5771 5776 5780 5786 5791 5793 5796 5800 5803 5807 5811 5813 5815 5817 5822 5826 5829 5831 5835 5838 5842 5845 5847 5850 5852 5853 5853 5855 5857
5807 5803 5798 5793 5789 5778 5777 5773 5766 5760 5752 5742 5737 5735 5730 5731 5741 5746 5748 5752 5758 5760 5764 5771 5778 5783 5786 5790 5795 5799 5803 5806 5808 5806 5812 5818 5823 5826 5830 5834 5838 5842 5845 5847 5849 5851 5852 5854 5855
5800 5795 5789 5783 5776 5768 5760 5753 5746 5741 5735 5726 5717 5709 5705 5705 5713 5722 5723 5728 5738 5743 5748 5754 5763 5770 5775 5778 5784 5790 5796 5798 5801 5798 5800 5809 5815 5821 5824 5829 5833 5838 5843 5845 5846 5848 5850 5853 5853
5792 5786 5779 5770 5762 5753 5745 5738 5726 5717 5710 5704 5693 5684 5676 5684 5684 5689 5698 5703 5713 5723 5729 5738 5745 5754 5761 5766 5774 5780 5787 5790 5801 5789 5790 5797 5807 5815 5820 5824 5828 5833 5838 5843 5844 5845 5848 5850 5854
5782 5775 5766 5758 5748 5738 5728 5717 5707 5697 5683 5673 5669 5659 5654 5657 5654 5658 5667 5677 5686 5696 5705 5716 5727 5737 5746 5754 5762 5768 5776 5781 5792 5776 5787 5788 5800 5809 5815 5819 5824 5829 5833 5838 5841 5843 5846 5849 5852
5771 5763 5754 5744 5735 5724 5712 5698 5685 5672 5660 5648 5642 5637 5635 5631 5632 5633 5640 5652 5660 5670 5680 5692 5705 5718 5729 5739 5748 5756 5764 5773 5777 5782 5778 5785 5791 5801 5808 5814 5819 5823 5829 5832 5839 5842 5844 5847 5851
5762 5751 5741 5731 5720 5707 5693 5678 5664 5648 5636 5629 5625 5622 5622 5619 5616 5616 5621 5626 5634 5644 5656 5669 5683 5697 5710 5722 5733 5742 5751 5761 5766 5772 5770 5780 5784 5793 5802 5807 5814 5819 5824 5829 5835 5839 5842 5845 5849
5750 5739 5729 5717 5703 5690 5676 5658 5642 5629 5620 5617 5616 5614 5612 5609 5606 5605 5606 5611 5615 5622 5634 5647 5661 5676 5692 5704 5716 5728 5742 5749 5758 5764 5770 5774 5782 5787 5795 5802 5808 5813 5818 5825 5830 5835 5839 5843 5848
5737 5725 5715 5702 5689 5674 5656 5635 5619 5613 5610 5609 5606 5604 5600 5597 5595 5593 5594 5597 5600 5604 5612 5625 5640 5656 5672 5685 5700 5712 5727 5734 5747 5748 5749 5766 5775 5781 5789 5796 5802 5807 5813 5820 5825 5830 5835 5840 5845
5728 5717 5701 5686 5673 5658 5640 5619 5608 5605 5602 5600 5598 5595 5591 5585 5578 5578 5580 5585 5589 5593 5597 5607 5620 5635 5652 5667 5682 5698 5708 5719 5733 5743 5751 5759 5765 5770 5780 5789 5795 5799 5807 5814 5820 5826 5831 5838 5843
5719 5705 5691 5670 5653 5640 5621 5609 5597 5595 5594 5592 5590 5587 5583 5576 5568 5565 5567 5572 5579 5583 5586 5592 5602 5617 5633 5648 5664 5678 5693 5696 5717 5732 5737 5747 5755 5759 5769 5780 5786 5792 5801 5807 5815 5822 5827 5834 5840
5707 5693 5680 5665 5645 5626 5605 5596 5589 5587 5586 5585 5582 5580 5577 5571 5564 5559 5558 5562 5566 5571 5575 5580 5586 5598 5615 5629 5645 5660 5675 5688 5696 5717 5731 5735 5742 5748 5760 5770 5778 5785 5794 5800 5808 5816 5823 5829 5836
5698 5685 5672 5649 5633 5612 5594 5584 5580 5580 5579 5577 5575 5572 5569 5566 5561 5555 5552 5552 5553 5558 5564 5569 5572 5580 5594 5611 5625 5641 5656 5673 5688 5703 5712 5721 5727 5736 5748 5761 5770 5777 5785 5793 5801 5810 5818 5825 5831
5690 5674 5659 5642 5623 5604 5581 5575 5573 5573 5572 5570 5568 5566 5563 5560 5556 5551 5548 5543 5542 5545 5551 5558 5562 5566 5577 5591 5609 5623 5639 5656 5672 5688 5700 5714 5726 5730 5729 5748 5759 5769 5777 5788 5796 5804 5815 5821 5827
5681 5668 5654 5635 5613 5595 5577 5570 5568 5567 5566 5564 5561 5558 5556 5552 5549 5545 5541 5537 5534 5534 5536 5542 5549 5553 5560 5573 5590 5608 5622 5636 5656 5672 5687 5699 5713 5718 5724 5739 5748 5760 5768 5777 5788 5800 5808 5814 5820
5677 5660 5644 5625 5610 5589 5570 5566 5565 5564 5561 5558 5555 5552 5549 5544 5540 5538 5535 5531 5527 5526 5526 5528 5534 5540 5547 5556 5572 5590 5606 5621 5639 5656 5676 5691 5700 5712 5716 5728 5742 5754 5761 5771 5786 5796 5801 5809 5818
5672 5654 5639 5621 5603 5582 5567 5564 5560 5561 5556 5552 5550 5547 5542 5536 5531 5528 5527 5524 5521 5519 5519 5519 5521 5526 5532 5539 5554 5572 5588 5605 5622 5640 5660 5673 5689 5700 5710 5719 5731 5745 5755 5763 5780 5788 5793 5803 5811
5667 5650 5634 5617 5601 5579 5568 5562 5557 5555 5552 5548 5543 5538 5533 5528 5524 5520 5516 5515 5513 5512 5511 5511 5511 5514 5518 5524 5535 5553 5571 5588 5604 5624 5642 5661 5675 5688 5703 5714 5718 5737 5747 5758 5772 5777 5787 5798 5802
5662 5649 5633 5615 5595 5578 5565 5560 5557 5551 5547 5542 5537 5530 5526 5519 5515 5512 5509 5506 5503 5499 5497 5498 5498 5500 5503 5510 5518 5534 5553 5569 5589 5609 5627 5647 5664 5678 5690 5706 5712 5728 5737 5752 5764 5770 5781 5790 5797
5655 5644 5628 5610 5586 5571 5561 5559 5554 5548 5543 5537 5532 5525 5517 5511 5504 5499 5495 5492 5488 5485 5481 5480 5482 5483 5486 5492 5501 5515 5534 5550 5573 5594 5615 5634 5650 5666 5680 5695 5704 5717 5731 5747 5756 5763 5776 5782 5791
5643 5629 5614 5596 5585 5577 5564 5559 5552 5546 5539 5531 5522 5514 5507 5499 5493 5486 5479 5472 5466 5461 5458 5456 5459 5464 5467 5472 5484 5495 5514 5534 5556 5578 5599 5619 5637 5652 5670 5686 5695 5708 5724 5740 5749 5756 5768 5774 5784
5642 5629 5618 5606 5589 5575 5564 5557 5549 5541 5532 5522 5514 5506 5499 5490 5481 5470 5461 5454 5447 5439 5436 5435 5436 5442 5448 5454 5465 5479 5497 5519 5542 5562 5582 5605 5626 5641 5656 5675 5688 5702 5714 5731 5740 5751 5761 5769 5779
5644 5629 5612 5596 5578 5570 5563 5553 5547 5537 5528 5519 5510 5501 5491 5480 5467 5457 5449 5442 5434 5425 5420 5419 5420 5426 5431 5438 5446 5462 5478 5502 5526 5550 5569 5593 5614 5631 5647 5665 5677 5692 5704 5722 5733 5743 5753 5764 5772
5638 5624 5608 5597 5584 5567 5555 5550 5540 5531 5522 5512 5501 5490 5478 5467 5455 5444 5435 5426 5418 5410 5405 5405 5407 5410 5415 5421 5429 5443 5461 5486 5510 5536 5559 5581 5602 5622 5636 5656 5671 5685 5696 5711 5725 5736 5747 5758 5767
5639 5624 5610 5597 5584 5565 5552 5548 5535 5525 5515 5502 5491 5480 5469 5454 5442 5430 5416 5405 5395 5390 5386 5387 5390 5393 5398 5404 5413 5426 5444 5470 5498 5523 5546 5569 5591 5612 5632 5646 5662 5678 5691 5703 5717 5729 5740 5751 5762